• In Austria
  • List of Countries
  • For 7 days
  • Water Temperature
  • Satellite Maps
  • Weather Map
  • News
  • Weather Widgets
  • user-avatar
    Login

    Hourly Weather Dzierzbin

    Today, 20 June, Wednesday

    Time Temperature Precipitation Wind Pressure Humidity
    00:00 +17°C° 0 mm 2 mps 755 mmHg 84%
    01:00 +17°C° 0 mm 2 mps 755 mmHg 86%
    02:00 +18°C° 0 mm 1 mps 755 mmHg 88%
    03:00 +16°C° 0 mm 1 mps 755 mmHg 90%
    04:00 +16°C° 0 mm 1 mps 755 mmHg 91%
    05:00 +18°C° 0 mm 1 mps 756 mmHg 86%
    06:00 +20°C° 0 mm 1 mps 756 mmHg 81%
    07:00 +20°C° 0 mm 2 mps 756 mmHg 76%
    08:00 +23°C° 0 mm 2 mps 756 mmHg 71%
    09:00 +24°C° 0 mm 2 mps 755 mmHg 66%
    10:00 +25°C° 0 mm 3 mps 755 mmHg 61%
    11:00 +26°C° 0 mm 3 mps 755 mmHg 59%
    12:00 +26°C° 0 mm 3 mps 755 mmHg 57%
    13:00 +27°C° 0 mm 3 mps 754 mmHg 54%
    14:00 +27°C° 0 mm 2 mps 754 mmHg 55%
    15:00 +27°C° 0 mm 2 mps 754 mmHg 56%
    16:00 +27°C° 0 mm 2 mps 753 mmHg 56%
    17:00 +26°C° 0 mm 2 mps 753 mmHg 61%
    18:00 +26°C° 0 mm 1 mps 753 mmHg 65%
    19:00 +25°C° 0 mm 1 mps 753 mmHg 69%
    20:00 +24°C° 0 mm 1 mps 753 mmHg 72%
    21:00 +23°C° 0 mm 1 mps 753 mmHg 74%
    22:00 +21°C° 0 mm 1 mps 753 mmHg 77%
    23:00 +20°C° 0 mm 2 mps 752 mmHg 78%

    Tomorrow, 21 June, Thursday

    Time Temperature Precipitation Wind Pressure Humidity
    00:00 +20°C° 0 mm 2 mps 752 mmHg 78%
    01:00 +20°C° 0 mm 2 mps 752 mmHg 79%
    02:00 +19°C° 0 mm 3 mps 751 mmHg 81%
    03:00 +19°C° 0 mm 3 mps 751 mmHg 83%
    04:00 +19°C° 0 mm 3 mps 750 mmHg 84%
    05:00 +20°C° 0 mm 3 mps 750 mmHg 81%
    06:00 +22°C° 0 mm 3 mps 750 mmHg 78%
    07:00 +24°C° 0 mm 3 mps 749 mmHg 75%
    08:00 +25°C° 0.1 mm 3 mps 749 mmHg 69%
    09:00 +27°C° 0.1 mm 4 mps 748 mmHg 63%
    10:00 +28°C° 0.1 mm 4 mps 747 mmHg 57%
    11:00 +29°C° 0.1 mm 5 mps 747 mmHg 55%
    12:00 +29°C° 0.1 mm 5 mps 746 mmHg 54%
    13:00 +30°C° 0.1 mm 5 mps 745 mmHg 52%
    14:00 +29°C° 0.1 mm 5 mps 744 mmHg 55%
    15:00 +29°C° 0.1 mm 5 mps 744 mmHg 58%
    16:00 +28°C° 0.1 mm 5 mps 743 mmHg 60%
    17:00 +24°C° 0.6 mm 6 mps 743 mmHg 68%
    18:00 +21°C° 0.6 mm 7 mps 744 mmHg 75%
    19:00 +17°C° 0.6 mm 8 mps 744 mmHg 82%
    20:00 +16°C° 0.1 mm 8 mps 745 mmHg 80%
    21:00 +15°C° 0.1 mm 7 mps 746 mmHg 78%
    22:00 +12°C° 0.1 mm 7 mps 747 mmHg 76%
    23:00 +13°C° 0 mm 6 mps 747 mmHg 74%

    Day after tomorrow, 22 June, Friday

    Time Temperature Precipitation Wind Pressure Humidity
    00:00 +11°C° 0 mm 6 mps 747 mmHg 73%
    01:00 +10°C° 0 mm 6 mps 748 mmHg 71%
    02:00 +9°C° 0 mm 6 mps 748 mmHg 72%
    03:00 +9°C° 0 mm 6 mps 748 mmHg 73%
    04:00 +8°C° 0 mm 6 mps 748 mmHg 74%
    05:00 +9°C° 0 mm 7 mps 749 mmHg 71%
    06:00 +10°C° 0 mm 7 mps 749 mmHg 69%
    07:00 +11°C° 0 mm 8 mps 749 mmHg 66%
    08:00 +11°C° 0 mm 8 mps 749 mmHg 66%
    09:00 +11°C° 0 mm 8 mps 749 mmHg 65%
    10:00 +11°C° 0 mm 8 mps 749 mmHg 65%
    11:00 +12°C° 0 mm 9 mps 749 mmHg 63%
    12:00 +13°C° 0 mm 9 mps 749 mmHg 61%
    13:00 +15°C° 0 mm 9 mps 749 mmHg 58%
    14:00 +15°C° 0.1 mm 8 mps 749 mmHg 59%
    15:00 +16°C° 0.1 mm 8 mps 749 mmHg 59%
    16:00 +16°C° 0.1 mm 7 mps 749 mmHg 59%
    17:00 +16°C° 0.1 mm 6 mps 749 mmHg 63%
    18:00 +15°C° 0.1 mm 5 mps 749 mmHg 68%
    19:00 +14°C° 0.1 mm 3 mps 749 mmHg 72%
    20:00 +13°C° 0 mm 3 mps 749 mmHg 75%
    21:00 +12°C° 0 mm 3 mps 750 mmHg 79%
    22:00 +11°C° 0 mm 3 mps 750 mmHg 82%
    23:00 +11°C° 0 mm 4 mps 750 mmHg 82%

    23 June, Saturday

    Time Temperature Precipitation Wind Pressure Humidity
    00:00 +11°C° 0 mm 4 mps 750 mmHg 82%
    01:00 +11°C° 0 mm 4 mps 750 mmHg 82%
    02:00 +10°C° 0 mm 4 mps 750 mmHg 84%
    03:00 +9°C° 0 mm 5 mps 750 mmHg 87%
    04:00 +8°C° 0 mm 5 mps 750 mmHg 90%
    05:00 +9°C° 0 mm 5 mps 750 mmHg 87%
    06:00 +10°C° 0 mm 6 mps 750 mmHg 84%
    07:00 +11°C° 0 mm 6 mps 750 mmHg 81%
    08:00 +13°C° 0 mm 6 mps 750 mmHg 76%
    09:00 +14°C° 0 mm 6 mps 750 mmHg 72%
    10:00 +15°C° 0 mm 6 mps 751 mmHg 67%
    11:00 +16°C° 0.2 mm 6 mps 751 mmHg 66%
    12:00 +16°C° 0.2 mm 7 mps 751 mmHg 64%
    13:00 +17°C° 0.2 mm 7 mps 751 mmHg 62%
    14:00 +17°C° 0.1 mm 6 mps 750 mmHg 61%
    15:00 +17°C° 0.1 mm 6 mps 750 mmHg 60%
    16:00 +19°C° 0.1 mm 6 mps 750 mmHg 58%
    17:00 +17°C° 0.2 mm 5 mps 750 mmHg 64%
    18:00 +17°C° 0.2 mm 4 mps 750 mmHg 69%
    19:00 +15°C° 0.2 mm 4 mps 750 mmHg 75%
    20:00 +14°C° 0.1 mm 4 mps 751 mmHg 78%
    21:00 +13°C° 0.1 mm 4 mps 751 mmHg 81%
    22:00 +12°C° 0.1 mm 4 mps 751 mmHg 85%
    23:00 +12°C° 0 mm 4 mps 751 mmHg 87%

    24 June, Sunday

    Time Temperature Precipitation Wind Pressure Humidity
    00:00 +11°C° 0 mm 4 mps 751 mmHg 90%
    01:00 +11°C° 0 mm 4 mps 751 mmHg 93%
    02:00 +10°C° 0 mm 4 mps 751 mmHg 94%
    03:00 +10°C° 0 mm 3 mps 751 mmHg 95%
    04:00 +10°C° 0 mm 3 mps 751 mmHg 96%
    05:00 +11°C° 0.1 mm 3 mps 752 mmHg 93%
    06:00 +12°C° 0.1 mm 4 mps 752 mmHg 90%
    07:00 +13°C° 0.1 mm 4 mps 752 mmHg 87%
    08:00 +14°C° 0.1 mm 4 mps 752 mmHg 81%
    09:00 +15°C° 0.1 mm 4 mps 752 mmHg 74%
    10:00 +17°C° 0.1 mm 5 mps 752 mmHg 68%
    11:00 +18°C° 0.1 mm 4 mps 752 mmHg 66%
    12:00 +18°C° 0.1 mm 4 mps 752 mmHg 63%
    13:00 +19°C° 0.1 mm 4 mps 752 mmHg 61%
    14:00 +19°C° 0.1 mm 4 mps 752 mmHg 60%
    15:00 +19°C° 0.1 mm 4 mps 752 mmHg 59%
    16:00 +20°C° 0.1 mm 4 mps 752 mmHg 58%
    17:00 +19°C° 0.1 mm 3 mps 752 mmHg 64%
    18:00 +18°C° 0.1 mm 3 mps 752 mmHg 69%
    19:00 +17°C° 0.1 mm 3 mps 752 mmHg 75%
    20:00 +16°C° 0 mm 2 mps 752 mmHg 78%
    21:00 +15°C° 0 mm 2 mps 753 mmHg 81%
    22:00 +13°C° 0 mm 2 mps 753 mmHg 85%
    23:00 +13°C° 0 mm 2 mps 753 mmHg 86%

    25 June, Monday

    Time Temperature Precipitation Wind Pressure Humidity
    00:00 +12°C° 0 mm 2 mps 753 mmHg 88%
    01:00 +12°C° 0 mm 2 mps 753 mmHg 89%
    02:00 +12°C° 0 mm 2 mps 753 mmHg 90%
    03:00 +12°C° 0 mm 2 mps 753 mmHg 91%
    04:00 +10°C° 0 mm 2 mps 753 mmHg 92%
    05:00 +13°C° 0 mm 2 mps 753 mmHg 87%
    06:00 +15°C° 0 mm 2 mps 753 mmHg 82%
    07:00 +16°C° 0 mm 2 mps 753 mmHg 77%
    08:00 +17°C° 0.2 mm 2 mps 753 mmHg 73%
    09:00 +18°C° 0.2 mm 3 mps 753 mmHg 68%
    10:00 +20°C° 0.2 mm 3 mps 753 mmHg 63%
    11:00 +20°C° 0.1 mm 3 mps 753 mmHg 61%
    12:00 +21°C° 0.1 mm 3 mps 752 mmHg 60%
    13:00 +21°C° 0.1 mm 3 mps 752 mmHg 58%
    14:00 +21°C° 0.1 mm 4 mps 752 mmHg 61%
    15:00 +21°C° 0.1 mm 4 mps 752 mmHg 63%
    16:00 +20°C° 0.1 mm 4 mps 752 mmHg 65%
    17:00 +19°C° 0.1 mm 4 mps 752 mmHg 71%
    18:00 +18°C° 0.1 mm 3 mps 752 mmHg 76%
    19:00 +17°C° 0.1 mm 3 mps 752 mmHg 82%
    20:00 +16°C° 0 mm 3 mps 752 mmHg 84%
    21:00 +16°C° 0 mm 3 mps 752 mmHg 85%
    22:00 +14°C° 0 mm 3 mps 752 mmHg 87%
    23:00 +14°C° 0.1 mm 3 mps 752 mmHg 89%
    Show more